FLOCK 2K-17 (42888 NORAD) Tracking and Keplerian Element Data

This shows tracking and keplerian element data for the satellite.

Feedback or suggestion? Click here.




ElementValue
Catalog42888
NameFLOCK 2K-17
Epoch Orbit15571
Epoch Day114.59402107
Epoch Year2020
RAAN346.2052
Inclination96.8985
Eccentricity0.0011134
Argument of Perigee147.691
Mean Anonmoly212.5023
Mean Motion15.42959071
Decay Rate6.418E-05
L11 42888U 17042BR 20114.59402107 .00006418 00000-0 14735-3 0 9992
L22 42888 96.8985 346.2052 0011134 147.6910 212.5023 15.42959071155714

Live tracking and technical data element details for FLOCK 2K-17 (NORAD 42888). FLOCK 2K-17 can be tracked NOW for your location showing map with azimuth and elevation plus other details from your city location.

Track the satellite on the map from your city or location and see movement details for azimuth, elevation, latitude, longitude, range, height, and movement on the map or in text.







IsCatalogInMostPopularTable: catalog: 42888, numindb: 462
Update: records affected: 1



GetName: 42888 FLOCK 2K-17

Hit Count: updated at: Mon, 10 Aug 2020 22:02:13 GMT